Tracking 26492 objects as of 8-Dec-2022
HD Live streaming from Space Station
objects crossing your sky now

STARLINK-4766

Track STARLINK-4766 now!
10-day predictions
STARLINK-4766 is classified as:


NORAD ID: 53840
Int'l Code: 2022-114Y
Perigee: 494.0 km
Apogee: 495.6 km
Inclination: 53.2 °
Period: 94.4 minutes
Semi major axis: 6865 km
RCS: Unknown
Launch date: September 19, 2022
Source: United States (US)
Launch site: AIR FORCE EASTERN TEST RANGE (AFETR)
aabbcc
Your satellite tracking list
Your tracking list is empty




NASA's NSSDC Master Catalog

Two Line Element Set (TLE):
1 53840U 22114Y   22342.33334491 -.01152455  00000-0 -47885-1 0  9991
2 53840  53.2175 224.8359 0001123  89.5927 297.3360 15.26034580 13171
Source of the keplerian elements: AFSPC